| time (UTC) | temp F | wind direction | speed MPH | gust MPH | rain 1hr in | rain 24hr in | rain mn in | humidity % | barometer mb |
| 20260510044729 | 67 | 53 | 5.0 | 6.0 | 0.00 | 0.00 | 0.00 | 55 | 1011.8 |
| 20260510044227 | 67 | 40 | 3.0 | 6.0 | 0.00 | 0.00 | 0.00 | 56 | 1011.8 |
| 20260510043728 | 67 | 47 | 4.0 | 6.0 | 0.00 | 0.00 | 0.00 | 59 | 1011.6 |
| 20260510043227 | 67 | 55 | 4.0 | 4.0 | 0.00 | 0.00 | 0.00 | 57 | 1011.6 |
| 20260510042727 | 68 | 42 | 3.0 | 5.0 | 0.00 | 0.00 | 0.00 | 56 | 1011.5 |
| 20260510042227 | 68 | 44 | 3.0 | 5.0 | 0.00 | 0.00 | 0.00 | 55 | 1011.5 |
| 20260510041728 | 68 | 37 | 3.0 | 5.0 | 0.00 | 0.00 | 0.00 | 55 | 1011.5 |
| 20260510041227 | 68 | 44 | 4.0 | 5.0 | 0.00 | 0.00 | 0.00 | 55 | 1011.6 |
| 20260510040731 | 68 | 44 | 4.0 | 5.0 | 0.00 | 0.00 | 0.00 | 54 | 1011.5 |
| 20260510040226 | 68 | 24 | 3.0 | 4.0 | 0.00 | 0.00 | 0.00 | 55 | 1011.6 |
| 20260510035729 | 68 | 30 | 2.0 | 4.0 | 0.00 | 0.00 | 0.00 | 56 | 1011.6 |
| 20260510035228 | 68 | 19 | 3.0 | 5.0 | 0.00 | 0.00 | 0.00 | 56 | 1011.6 |
| 20260510034728 | 68 | 34 | 3.0 | 5.0 | 0.00 | 0.00 | 0.00 | 56 | 1011.6 |
| 20260510034228 | 68 | 20 | 4.0 | 5.0 | 0.00 | 0.00 | 0.00 | 57 | 1011.3 |
| 20260510033726 | 68 | 38 | 3.0 | 5.0 | 0.00 | 0.00 | 0.00 | 57 | 1011.1 |
| 20260510033228 | 68 | 38 | 3.0 | 5.0 | 0.00 | 0.00 | 0.00 | 56 | 1011.2 |
| 20260510032728 | 68 | 24 | 2.0 | 5.0 | 0.00 | 0.00 | 0.00 | 57 | 1011.1 |
| 20260510032225 | 68 | 31 | 3.0 | 5.0 | 0.00 | 0.00 | 0.00 | 57 | 1011.0 |
| 20260510031728 | 69 | 30 | 3.0 | 5.0 | 0.00 | 0.00 | 0.00 | 57 | 1010.8 |
| 20260510031227 | 69 | 45 | 3.0 | 5.0 | 0.00 | 0.00 | 0.00 | 57 | 1010.7 |
| 20260510030727 | 70 | 41 | 4.0 | 5.0 | 0.00 | 0.00 | 0.00 | 55 | 1010.6 |
| 20260510030225 | 70 | 42 | 4.0 | 5.0 | 0.00 | 0.00 | 0.00 | 55 | 1010.5 |
| 20260510025726 | 70 | 58 | 4.0 | 5.0 | 0.00 | 0.00 | 0.00 | 56 | 1010.4 |
| 20260510025224 | 70 | 46 | 4.0 | 6.0 | 0.00 | 0.00 | 0.00 | 55 | 1010.4 |
| 20260510024726 | 70 | 50 | 4.0 | 6.0 | 0.00 | 0.00 | 0.00 | 55 | 1010.4 |
| 20260510024226 | 71 | 41 | 4.0 | 6.0 | 0.00 | 0.00 | 0.00 | 55 | 1010.3 |
| 20260510023727 | 71 | 57 | 4.0 | 5.0 | 0.00 | 0.00 | 0.00 | 54 | 1010.3 |
| 20260510023225 | 72 | 45 | 4.0 | 5.0 | 0.00 | 0.00 | 0.00 | 53 | 1010.3 |
| 20260510022725 | 72 | 44 | 3.0 | 5.0 | 0.00 | 0.00 | 0.00 | 53 | 1010.1 |
| 20260510022226 | 72 | 44 | 4.0 | 4.0 | 0.00 | 0.00 | 0.00 | 52 | 1010.0 |
| 20260510021726 | 72 | 45 | 2.0 | 4.0 | 0.00 | 0.00 | 0.00 | 52 | 1010.0 |
| 20260510021224 | 73 | 45 | 3.0 | 4.0 | 0.00 | 0.00 | 0.00 | 52 | 1009.8 |
| 20260510020724 | 73 | 49 | 3.0 | 4.0 | 0.00 | 0.00 | 0.00 | 51 | 1009.8 |
| 20260510020224 | 73 | 52 | 3.0 | 4.0 | 0.00 | 0.00 | 0.00 | 47 | 1009.6 |
| 20260510015725 | 74 | 61 | 3.0 | 4.0 | 0.00 | 0.00 | 0.00 | 44 | 1009.6 |
| 20260510015224 | 74 | 81 | 2.0 | 4.0 | 0.00 | 0.00 | 0.00 | 43 | 1009.6 |
| 20260510014726 | 74 | 82 | 3.0 | 4.0 | 0.00 | 0.00 | 0.00 | 42 | 1009.6 |
| 20260510014223 | 74 | 88 | 3.0 | 3.0 | 0.00 | 0.00 | 0.00 | 42 | 1009.5 |
| 20260510013723 | 75 | 89 | 1.0 | 3.0 | 0.00 | 0.00 | 0.00 | 41 | 1009.4 |
| 20260510013223 | 75 | 96 | 1.0 | 3.0 | 0.00 | 0.00 | 0.00 | 41 | 1009.5 |
| 20260510012725 | 75 | 96 | 1.0 | 2.0 | 0.00 | 0.00 | 0.00 | 40 | 1009.3 |
| 20260510012225 | 75 | 96 | 2.0 | 2.0 | 0.00 | 0.00 | 0.00 | 40 | 1009.3 |
| 20260510011726 | 75 | 96 | 1.0 | 2.0 | 0.00 | 0.00 | 0.00 | 41 | 1009.1 |
| 20260510011222 | 76 | 96 | 1.0 | 2.0 | 0.00 | 0.00 | 0.00 | 41 | 1009.0 |
| 20260510010723 | 76 | 96 | 1.0 | 3.0 | 0.00 | 0.00 | 0.00 | 41 | 1009.0 |
| 20260510010224 | 77 | 96 | 1.0 | 3.0 | 0.00 | 0.00 | 0.00 | 41 | 1009.0 |
| 20260510005722 | 77 | 104 | 2.0 | 2.0 | 0.00 | 0.00 | 0.00 | 42 | 1008.9 |
| 20260510005222 | 78 | 103 | 1.0 | 2.0 | 0.00 | 0.00 | 0.00 | 41 | 1009.0 |
| 20260510004723 | 78 | 0 | 0.0 | 2.0 | 0.00 | 0.00 | 0.00 | 40 | 1008.9 |
| 20260510004222 | 78 | 104 | 1.0 | 3.0 | 0.00 | 0.00 | 0.00 | 39 | 1008.8 |
| 20260510003720 | 78 | 103 | 1.0 | 3.0 | 0.00 | 0.00 | 0.00 | 39 | 1008.8 |
| 20260510003221 | 79 | 138 | 1.0 | 3.0 | 0.00 | 0.00 | 0.00 | 40 | 1008.7 |
| 20260510002721 | 79 | 138 | 2.0 | 3.0 | 0.00 | 0.00 | 0.00 | 39 | 1008.6 |
| 20260510002220 | 79 | 138 | 1.0 | 3.0 | 0.00 | 0.00 | 0.00 | 39 | 1008.8 |
| 20260510001723 | 80 | 139 | 2.0 | 4.0 | 0.00 | 0.00 | 0.00 | 39 | 1008.8 |
| 20260510001220 | 80 | 146 | 1.0 | 5.0 | 0.00 | 0.00 | 0.00 | 39 | 1008.9 |
| 20260510000721 | 80 | 130 | 2.0 | 5.0 | 0.00 | 0.00 | 0.00 | 41 | 1008.9 |
| 20260510000221 | 80 | 134 | 2.0 | 4.0 | 0.00 | 0.00 | 0.00 | 40 | 1009.0 |
| 20260509235719 | 80 | 138 | 1.0 | 4.0 | 0.00 | 0.00 | 0.00 | 42 | 1009.0 |
| 20260509235220 | 80 | 150 | 1.0 | 7.0 | 0.00 | 0.00 | 0.00 | 41 | 1009.0 |
| 20260509234722 | 80 | 0 | 0.0 | 7.0 | 0.00 | 0.00 | 0.00 | 38 | 1008.9 |
| 20260509234219 | 81 | 119 | 3.0 | 7.0 | 0.00 | 0.00 | 0.00 | 41 | 1008.8 |
| 20260509233719 | 81 | 126 | 3.0 | 7.0 | 0.00 | 0.00 | 0.00 | 39 | 1008.8 |
| 20260509233219 | 81 | 118 | 2.0 | 7.0 | 0.00 | 0.00 | 0.00 | 38 | 1008.8 |
| 20260509232719 | 82 | 163 | 1.0 | 6.0 | 0.00 | 0.00 | 0.00 | 37 | 1009.0 |
| 20260509232217 | 82 | 167 | 5.0 | 5.0 | 0.00 | 0.00 | 0.00 | 45 | 1008.9 |
| 20260509231717 | 82 | 141 | 4.0 | 6.0 | 0.00 | 0.00 | 0.00 | 37 | 1009.0 |
| 20260509231218 | 82 | 136 | 3.0 | 6.0 | 0.00 | 0.00 | 0.00 | 43 | 1009.0 |
| 20260509230718 | 82 | 165 | 4.0 | 6.0 | 0.00 | 0.00 | 0.00 | 42 | 1009.1 |
| 20260509230218 | 82 | 149 | 5.0 | 7.0 | 0.00 | 0.00 | 0.00 | 39 | 1009.2 |
| 20260509225720 | 82 | 113 | 4.0 | 7.0 | 0.00 | 0.00 | 0.00 | 39 | 1009.1 |
| 20260509225218 | 82 | 152 | 5.0 | 8.0 | 0.00 | 0.00 | 0.00 | 39 | 1009.1 |
| 20260509224719 | 83 | 139 | 4.0 | 8.0 | 0.00 | 0.00 | 0.00 | 42 | 1009.0 |
| 20260509224217 | 83 | 131 | 4.0 | 8.0 | 0.00 | 0.00 | 0.00 | 39 | 1009.0 |
| 20260509223718 | 83 | 153 | 2.0 | 5.0 | 0.00 | 0.00 | 0.00 | 43 | 1009.0 |
| 20260509223217 | 83 | 152 | 2.0 | 7.0 | 0.00 | 0.00 | 0.00 | 38 | 1009.0 |
| 20260509222717 | 83 | 167 | 4.0 | 7.0 | 0.00 | 0.00 | 0.00 | 38 | 1009.0 |
| 20260509222217 | 83 | 215 | 3.0 | 7.0 | 0.00 | 0.00 | 0.00 | 41 | 1009.0 |
| 20260509221718 | 83 | 165 | 5.0 | 7.0 | 0.00 | 0.00 | 0.00 | 36 | 1009.0 |
| 20260509221216 | 84 | 153 | 5.0 | 11.0 | 0.00 | 0.00 | 0.00 | 38 | 1009.0 |
| 20260509220716 | 84 | 168 | 5.0 | 11.0 | 0.00 | 0.00 | 0.00 | 34 | 1008.9 |
| 20260509220317 | 84 | 215 | 2.0 | 6.0 | 0.00 | 0.00 | 0.00 | 35 | 1008.8 |
| 20260509215815 | 84 | 175 | 6.0 | 6.0 | 0.00 | 0.00 | 0.00 | 35 | 1008.9 |
| 20260509215342 | 84 | 169 | 2.0 | 8.0 | 0.00 | 0.00 | 0.00 | 38 | 1009.0 |
| 20260509214914 | 84 | 146 | 1.0 | 9.0 | 0.00 | 0.00 | 0.00 | 33 | 1008.9 |
| 20260509214440 | 84 | 154 | 8.0 | 10.0 | 0.00 | 0.00 | 0.00 | 37 | 1008.9 |
| 20260509213916 | 84 | 184 | 2.0 | 10.0 | 0.00 | 0.00 | 0.00 | 36 | 1009.0 |
| 20260509213439 | 84 | 198 | 5.0 | 10.0 | 0.00 | 0.00 | 0.00 | 36 | 1009.0 |
| 20260509212941 | 84 | 200 | 3.0 | 6.0 | 0.00 | 0.00 | 0.00 | 35 | 1009.1 |
| 20260509212439 | 83 | 205 | 2.0 | 8.0 | 0.00 | 0.00 | 0.00 | 33 | 1009.1 |
| 20260509211937 | 83 | 103 | 1.0 | 8.0 | 0.00 | 0.00 | 0.00 | 34 | 1009.2 |
| 20260509211439 | 83 | 142 | 2.0 | 8.0 | 0.00 | 0.00 | 0.00 | 35 | 1009.1 |
| 20260509210944 | 84 | 145 | 3.0 | 10.0 | 0.00 | 0.00 | 0.00 | 39 | 1009.2 |
| 20260509210439 | 83 | 210 | 2.0 | 10.0 | 0.00 | 0.00 | 0.00 | 33 | 1009.3 |
| 20260509205941 | 83 | 0 | 0.0 | 10.0 | 0.00 | 0.00 | 0.00 | 34 | 1009.3 |
| 20260509205442 | 83 | 147 | 3.0 | 10.0 | 0.00 | 0.00 | 0.00 | 35 | 1009.3 |
| 20260509204942 | 83 | 159 | 4.0 | 10.0 | 0.00 | 0.00 | 0.00 | 34 | 1009.4 |
| 20260509204443 | 83 | 0 | 0.0 | 10.0 | 0.00 | 0.00 | 0.00 | 32 | 1009.6 |
| 20260509203941 | 82 | 173 | 6.0 | 7.0 | 0.00 | 0.00 | 0.00 | 37 | 1009.6 |
| 20260509203440 | 82 | 132 | 5.0 | 9.0 | 0.00 | 0.00 | 0.00 | 36 | 1009.7 |
| 20260509202939 | 83 | 0 | 0.0 | 9.0 | 0.00 | 0.00 | 0.00 | 32 | 1009.7 |
| 20260509202443 | 83 | 104 | 4.0 | 8.0 | 0.00 | 0.00 | 0.00 | 30 | 1009.8 |
| 20260509201939 | 83 | 131 | 3.0 | 8.0 | 0.00 | 0.00 | 0.00 | 35 | 1009.8 |
| 20260509201439 | 83 | 202 | 2.0 | 9.0 | 0.00 | 0.00 | 0.00 | 33 | 1010.1 |
| 20260509200938 | 83 | 173 | 6.0 | 9.0 | 0.00 | 0.00 | 0.00 | 32 | 1010.0 |
| 20260509200436 | 83 | 159 | 5.0 | 8.0 | 0.00 | 0.00 | 0.00 | 30 | 1010.1 |
| 20260509195943 | 83 | 217 | 5.0 | 10.0 | 0.00 | 0.00 | 0.00 | 34 | 1010.1 |
| 20260509195444 | 83 | 188 | 5.0 | 10.0 | 0.00 | 0.00 | 0.00 | 32 | 1010.2 |
| 20260509194936 | 82 | 57 | 1.0 | 11.0 | 0.00 | 0.00 | 0.00 | 34 | 1010.1 |
| 20260509194440 | 82 | 107 | 4.0 | 11.0 | 0.00 | 0.00 | 0.00 | 29 | 1010.1 |
| 20260509193940 | 82 | 152 | 4.0 | 10.0 | 0.00 | 0.00 | 0.00 | 35 | 1010.2 |
| 20260509193438 | 82 | 133 | 8.0 | 10.0 | 0.00 | 0.00 | 0.00 | 35 | 1010.1 |
| 20260509192942 | 82 | 235 | 2.0 | 10.0 | 0.00 | 0.00 | 0.00 | 35 | 1010.1 |
| 20260509192442 | 82 | 141 | 5.0 | 10.0 | 0.00 | 0.00 | 0.00 | 41 | 1010.2 |
| 20260509191939 | 82 | 153 | 8.0 | 10.0 | 0.00 | 0.00 | 0.00 | 40 | 1010.2 |
| 20260509191438 | 82 | 191 | 6.0 | 10.0 | 0.00 | 0.00 | 0.00 | 38 | 1010.2 |
| 20260509190940 | 82 | 120 | 4.0 | 10.0 | 0.00 | 0.00 | 0.00 | 39 | 1010.3 |
| 20260509190443 | 82 | 171 | 5.0 | 10.0 | 0.00 | 0.00 | 0.00 | 37 | 1010.4 |
| 20260509185939 | 82 | 204 | 3.0 | 11.0 | 0.00 | 0.00 | 0.00 | 40 | 1010.5 |
| 20260509185436 | 81 | 173 | 3.0 | 11.0 | 0.00 | 0.00 | 0.00 | 41 | 1010.4 |
| 20260509184939 | 81 | 126 | 7.0 | 11.0 | 0.00 | 0.00 | 0.00 | 41 | 1010.4 |
| 20260509184439 | 81 | 165 | 5.0 | 9.0 | 0.00 | 0.00 | 0.00 | 44 | 1010.5 |
| 20260509183941 | 81 | 134 | 3.0 | 9.0 | 0.00 | 0.00 | 0.00 | 40 | 1010.5 |
| 20260509183436 | 80 | 175 | 4.0 | 9.0 | 0.00 | 0.00 | 0.00 | 43 | 1010.5 |
| 20260509182944 | 81 | 105 | 8.0 | 9.0 | 0.00 | 0.00 | 0.00 | 41 | 1010.5 |
| 20260509182441 | 81 | 94 | 3.0 | 9.0 | 0.00 | 0.00 | 0.00 | 44 | 1010.7 |
| 20260509181940 | 81 | 163 | 4.0 | 9.0 | 0.00 | 0.00 | 0.00 | 48 | 1010.7 |
| 20260509181440 | 80 | 86 | 1.0 | 8.0 | 0.00 | 0.00 | 0.00 | 52 | 1010.6 |
| 20260509180943 | 80 | 135 | 3.0 | 8.0 | 0.00 | 0.00 | 0.00 | 53 | 1010.7 |
| 20260509180436 | 79 | 76 | 3.0 | 8.0 | 0.00 | 0.00 | 0.00 | 50 | 1010.6 |
| 20260509175941 | 79 | 92 | 4.0 | 10.0 | 0.00 | 0.00 | 0.00 | 48 | 1010.6 |
| 20260509175438 | 79 | 52 | 2.0 | 10.0 | 0.00 | 0.00 | 0.00 | 52 | 1010.6 |
| 20260509174941 | 80 | 48 | 7.0 | 9.0 | 0.00 | 0.00 | 0.00 | 49 | 1010.6 |
| 20260509174438 | 80 | 135 | 3.0 | 6.0 | 0.00 | 0.00 | 0.00 | 52 | 1010.6 |
| 20260509173942 | 80 | 61 | 2.0 | 6.0 | 0.00 | 0.00 | 0.00 | 52 | 1010.6 |
| 20260509173439 | 80 | 202 | 2.0 | 10.0 | 0.00 | 0.00 | 0.00 | 57 | 1010.6 |
| 20260509172939 | 80 | 98 | 3.0 | 10.0 | 0.00 | 0.00 | 0.00 | 63 | 1010.6 |
| 20260509172438 | 80 | 33 | 1.0 | 5.0 | 0.00 | 0.00 | 0.00 | 56 | 1010.7 |
| 20260509171944 | 79 | 0 | 0.0 | 5.0 | 0.00 | 0.00 | 0.00 | 57 | 1010.7 |
| 20260509171438 | 79 | 333 | 4.0 | 5.0 | 0.00 | 0.00 | 0.00 | 59 | 1010.7 |
| 20260509170941 | 79 | 0 | 0.0 | 8.0 | 0.00 | 0.00 | 0.00 | 68 | 1010.7 |
| 20260509170444 | 79 | 190 | 2.0 | 8.0 | 0.00 | 0.00 | 0.00 | 72 | 1010.8 |
| 20260509165938 | 78 | 151 | 8.0 | 7.0 | 0.00 | 0.00 | 0.00 | 71 | 1010.8 |
| 20260509165437 | 77 | 234 | 2.0 | 4.0 | 0.00 | 0.00 | 0.00 | 71 | 1011.0 |
| 20260509164941 | 76 | 271 | 1.0 | 7.0 | 0.00 | 0.00 | 0.00 | 70 | 1011.0 |
| 20260509164442 | 76 | 229 | 2.0 | 7.0 | 0.00 | 0.00 | 0.00 | 72 | 1010.9 |
| 20260509163940 | 76 | 148 | 6.0 | 7.0 | 0.00 | 0.00 | 0.00 | 74 | 1011.0 |
| 20260509163444 | 75 | 217 | 2.0 | 5.0 | 0.00 | 0.00 | 0.00 | 74 | 1011.1 |
| 20260509162942 | 75 | 294 | 1.0 | 7.0 | 0.00 | 0.00 | 0.00 | 76 | 1011.1 |
| 20260509162440 | 74 | 254 | 1.0 | 9.0 | 0.00 | 0.00 | 0.00 | 78 | 1011.1 |
| 20260509161942 | 74 | 302 | 1.0 | 9.0 | 0.00 | 0.00 | 0.00 | 76 | 1011.2 |
| 20260509161441 | 74 | 273 | 2.0 | 7.0 | 0.00 | 0.00 | 0.00 | 79 | 1011.1 |
| 20260509160938 | 74 | 232 | 3.0 | 7.0 | 0.00 | 0.00 | 0.00 | 80 | 1011.1 |
| 20260509160441 | 73 | 252 | 3.0 | 6.0 | 0.00 | 0.00 | 0.00 | 80 | 1011.2 |
| 20260509155939 | 73 | 277 | 4.0 | 7.0 | 0.00 | 0.00 | 0.00 | 80 | 1011.3 |
| 20260509155436 | 73 | 349 | 2.0 | 7.0 | 0.00 | 0.00 | 0.00 | 81 | 1011.1 |
| 20260509154941 | 72 | 360 | 2.0 | 6.0 | 0.00 | 0.00 | 0.00 | 81 | 1011.1 |
| 20260509154441 | 72 | 278 | 4.0 | 6.0 | 0.00 | 0.00 | 0.00 | 82 | 1011.0 |
| 20260509153919 | 72 | 269 | 3.0 | 6.0 | 0.00 | 0.00 | 0.00 | 82 | 1011.0 |
| 20260509153419 | 71 | 279 | 2.0 | 6.0 | 0.00 | 0.00 | 0.00 | 82 | 1011.0 |
| 20260509152919 | 71 | 0 | 0.0 | 6.0 | 0.00 | 0.00 | 0.00 | 82 | 1011.0 |
| 20260509152420 | 71 | 264 | 2.0 | 6.0 | 0.00 | 0.00 | 0.00 | 82 | 1011.1 |
| 20260509151921 | 71 | 277 | 2.0 | 6.0 | 0.00 | 0.00 | 0.00 | 83 | 1011.1 |
| 20260509151422 | 71 | 243 | 4.0 | 6.0 | 0.00 | 0.00 | 0.00 | 83 | 1011.1 |
| 20260509150921 | 71 | 270 | 3.0 | 6.0 | 0.00 | 0.00 | 0.00 | 82 | 1011.1 |
| 20260509150419 | 71 | 198 | 1.0 | 6.0 | 0.00 | 0.00 | 0.00 | 83 | 1011.1 |
| 20260509145919 | 70 | 250 | 3.0 | 7.0 | 0.00 | 0.00 | 0.00 | 83 | 1011.1 |
| 20260509145419 | 70 | 319 | 3.0 | 7.0 | 0.00 | 0.00 | 0.00 | 84 | 1010.9 |
| 20260509144919 | 70 | 0 | 0.0 | 4.0 | 0.00 | 0.00 | 0.00 | 83 | 1011.0 |
| 20260509144420 | 70 | 246 | 1.0 | 4.0 | 0.00 | 0.00 | 0.00 | 84 | 1011.0 |
| 20260509143918 | 70 | 0 | 0.0 | 5.0 | 0.00 | 0.00 | 0.00 | 85 | 1011.0 |
| 20260509143418 | 70 | 154 | 2.0 | 5.0 | 0.00 | 0.00 | 0.00 | 84 | 1011.1 |
| 20260509142919 | 69 | 192 | 2.0 | 4.0 | 0.00 | 0.00 | 0.00 | 86 | 1011.0 |
| 20260509142418 | 69 | 0 | 0.0 | 2.0 | 0.00 | 0.00 | 0.00 | 87 | 1011.1 |
| 20260509141917 | 68 | 188 | 1.0 | 5.0 | 0.00 | 0.00 | 0.00 | 87 | 1011.0 |
| 20260509141418 | 68 | 160 | 1.0 | 5.0 | 0.00 | 0.00 | 0.00 | 87 | 1011.1 |
| 20260509140917 | 67 | 149 | 4.0 | 5.0 | 0.00 | 0.00 | 0.00 | 88 | 1011.0 |
| 20260509140420 | 67 | 144 | 1.0 | 5.0 | 0.00 | 0.00 | 0.00 | 88 | 1011.1 |
| 20260509140018 | 66 | 163 | 2.0 | 5.0 | 0.00 | 0.00 | 0.00 | 89 | 1011.0 |
| 20260509135618 | 66 | 147 | 3.0 | 2.0 | 0.00 | 0.00 | 0.00 | 90 | 1011.0 |
| 20260509135218 | 65 | 180 | 1.0 | 5.0 | 0.00 | 0.00 | 0.00 | 90 | 1011.1 |
| 20260509134815 | 65 | 155 | 2.0 | 5.0 | 0.00 | 0.00 | 0.00 | 90 | 1011.0 |
| 20260509134338 | 65 | 160 | 1.0 | 5.0 | 0.00 | 0.00 | 0.00 | 91 | 1011.0 |
| 20260509133916 | 64 | 148 | 5.0 | 5.0 | 0.00 | 0.00 | 0.00 | 92 | 1011.0 |
| 20260509133517 | 63 | 0 | 0.0 | 0.0 | 0.00 | 0.00 | 0.00 | 92 | 1010.9 |
| 20260509133038 | 63 | 0 | 0.0 | 0.0 | 0.00 | 0.00 | 0.00 | 92 | 1010.9 |
| 20260509132540 | 62 | 0 | 0.0 | 0.0 | 0.00 | 0.00 | 0.00 | 92 | 1010.9 |
| 20260509132040 | 62 | 0 | 0.0 | 3.0 | 0.00 | 0.00 | 0.00 | 92 | 1010.8 |
| 20260509131616 | 61 | 0 | 0.0 | 3.0 | 0.00 | 0.00 | 0.00 | 92 | 1010.8 |
| 20260509131141 | 61 | 0 | 0.0 | 3.0 | 0.00 | 0.00 | 0.00 | 92 | 1010.8 |
| 20260509130642 | 61 | 40 | 1.0 | 3.0 | 0.00 | 0.00 | 0.00 | 92 | 1010.7 |
| 20260509130139 | 61 | 0 | 0.0 | 3.0 | 0.00 | 0.00 | 0.00 | 92 | 1010.6 |
| 20260509125638 | 61 | 26 | 1.0 | 5.0 | 0.00 | 0.00 | 0.00 | 93 | 1010.3 |
| 20260509125141 | 60 | 355 | 1.0 | 5.0 | 0.00 | 0.00 | 0.00 | 92 | 1010.3 |
| 20260509124641 | 60 | 355 | 1.0 | 6.0 | 0.00 | 0.00 | 0.00 | 92 | 1010.2 |
| 20260509124139 | 60 | 326 | 1.0 | 6.0 | 0.00 | 0.00 | 0.00 | 93 | 1010.3 |
| 20260509123641 | 60 | 329 | 2.0 | 4.0 | 0.00 | 0.00 | 0.00 | 93 | 1010.3 |
| 20260509123137 | 59 | 330 | 2.0 | 4.0 | 0.00 | 0.00 | 0.00 | 93 | 1010.2 |
| 20260509122638 | 59 | 336 | 4.0 | 4.0 | 0.00 | 0.00 | 0.00 | 93 | 1010.1 |
| 20260509122137 | 59 | 328 | 2.0 | 5.0 | 0.00 | 0.00 | 0.00 | 93 | 1010.0 |
| 20260509121638 | 59 | 352 | 3.0 | 5.0 | 0.00 | 0.00 | 0.00 | 93 | 1010.0 |
| 20260509121135 | 59 | 342 | 3.0 | 5.0 | 0.00 | 0.00 | 0.00 | 93 | 1009.8 |
| 20260509120641 | 58 | 346 | 3.0 | 5.0 | 0.00 | 0.00 | 0.00 | 93 | 1009.7 |
| 20260509120138 | 58 | 338 | 2.0 | 5.0 | 0.00 | 0.00 | 0.00 | 93 | 1009.6 |
| 20260509115641 | 58 | 350 | 3.0 | 5.0 | 0.00 | 0.00 | 0.00 | 93 | 1009.7 |
| 20260509115140 | 58 | 343 | 2.0 | 5.0 | 0.00 | 0.00 | 0.00 | 93 | 1009.6 |
| 20260509114641 | 58 | 348 | 3.0 | 4.0 | 0.00 | 0.00 | 0.00 | 93 | 1009.6 |
| 20260509114140 | 58 | 342 | 3.0 | 4.0 | 0.00 | 0.00 | 0.00 | 93 | 1009.6 |
| 20260509113641 | 58 | 341 | 3.0 | 4.0 | 0.00 | 0.00 | 0.00 | 93 | 1009.6 |
| 20260509113142 | 58 | 0 | 0.0 | 0.0 | 0.00 | 0.00 | 0.00 | 93 | 1009.6 |
| 20260509112636 | 58 | 0 | 0.0 | 0.0 | 0.00 | 0.00 | 0.00 | 93 | 1009.5 |
| 20260509112135 | 58 | 0 | 0.0 | 1.0 | 0.00 | 0.00 | 0.00 | 93 | 1009.5 |
| 20260509111636 | 58 | 0 | 0.0 | 1.0 | 0.00 | 0.00 | 0.00 | 92 | 1009.3 |
| 20260509111142 | 58 | 0 | 0.0 | 1.0 | 0.00 | 0.00 | 0.00 | 92 | 1009.4 |
| 20260509110641 | 58 | 0 | 0.0 | 1.0 | 0.00 | 0.00 | 0.00 | 93 | 1009.5 |
| 20260509110137 | 58 | 0 | 0.0 | 1.0 | 0.00 | 0.00 | 0.00 | 93 | 1009.6 |
| 20260509105636 | 58 | 0 | 0.0 | 1.0 | 0.00 | 0.00 | 0.00 | 93 | 1009.4 |
| 20260509105142 | 58 | 0 | 0.0 | 2.0 | 0.00 | 0.00 | 0.00 | 93 | 1009.3 |
| 20260509104641 | 58 | 0 | 0.0 | 3.0 | 0.00 | 0.00 | 0.00 | 93 | 1009.3 |
| 20260509104141 | 58 | 360 | 1.0 | 3.0 | 0.00 | 0.00 | 0.00 | 93 | 1009.2 |
| 20260509103639 | 58 | 346 | 2.0 | 3.0 | 0.00 | 0.00 | 0.00 | 93 | 1009.1 |
| 20260509103141 | 58 | 346 | 3.0 | 3.0 | 0.00 | 0.00 | 0.00 | 93 | 1009.1 |
| 20260509102642 | 58 | 340 | 2.0 | 3.0 | 0.00 | 0.00 | 0.00 | 93 | 1009.2 |
| 20260509102135 | 58 | 329 | 1.0 | 3.0 | 0.00 | 0.00 | 0.00 | 93 | 1009.0 |
| 20260509101638 | 58 | 339 | 1.0 | 4.0 | 0.00 | 0.00 | 0.00 | 93 | 1009.0 |
| 20260509101137 | 58 | 338 | 2.0 | 4.0 | 0.00 | 0.00 | 0.00 | 93 | 1009.0 |
| 20260509100639 | 58 | 338 | 3.0 | 4.0 | 0.00 | 0.00 | 0.00 | 93 | 1009.0 |
| 20260509100144 | 58 | 347 | 1.0 | 4.0 | 0.00 | 0.00 | 0.00 | 93 | 1009.0 |
| 20260509095639 | 58 | 346 | 2.0 | 4.0 | 0.00 | 0.00 | 0.00 | 93 | 1009.0 |
| 20260509095136 | 58 | 351 | 3.0 | 4.0 | 0.00 | 0.00 | 0.00 | 94 | 1009.0 |
| 20260509094641 | 58 | 348 | 2.0 | 4.0 | 0.00 | 0.00 | 0.00 | 94 | 1009.1 |
| 20260509094138 | 58 | 328 | 3.0 | 5.0 | 0.00 | 0.00 | 0.00 | 94 | 1009.1 |
| 20260509093639 | 58 | 351 | 2.0 | 5.0 | 0.00 | 0.00 | 0.00 | 94 | 1009.1 |
| 20260509093141 | 58 | 339 | 4.0 | 5.0 | 0.00 | 0.00 | 0.00 | 94 | 1009.1 |
| 20260509092640 | 58 | 340 | 3.0 | 4.0 | 0.00 | 0.00 | 0.00 | 93 | 1009.1 |
| 20260509092142 | 58 | 346 | 2.0 | 4.0 | 0.00 | 0.00 | 0.00 | 93 | 1009.1 |
| 20260509091640 | 58 | 352 | 2.0 | 4.0 | 0.00 | 0.00 | 0.00 | 93 | 1009.1 |
| 20260509091141 | 58 | 346 | 2.0 | 5.0 | 0.00 | 0.00 | 0.00 | 93 | 1009.0 |
| 20260509090642 | 58 | 360 | 2.0 | 5.0 | 0.00 | 0.00 | 0.00 | 93 | 1009.0 |
| 20260509090215 | 58 | 346 | 3.0 | 5.0 | 0.00 | 0.00 | 0.00 | 93 | 1009.1 |
| 20260509085737 | 58 | 360 | 3.0 | 4.0 | 0.00 | 0.00 | 0.00 | 93 | 1009.1 |
| 20260509085237 | 58 | 360 | 3.0 | 4.0 | 0.00 | 0.00 | 0.00 | 93 | 1009.2 |
| 20260509084743 | 58 | 348 | 2.0 | 4.0 | 0.00 | 0.00 | 0.00 | 94 | 1009.2 |
| 20260509084318 | 58 | 348 | 3.0 | 4.0 | 0.00 | 0.00 | 0.00 | 94 | 1009.3 |
| 20260509083816 | 58 | 349 | 1.0 | 4.0 | 0.00 | 0.00 | 0.00 | 94 | 1009.3 |
| 20260509083340 | 58 | 350 | 2.0 | 4.0 | 0.00 | 0.00 | 0.00 | 94 | 1009.3 |
| 20260509082839 | 58 | 333 | 3.0 | 4.0 | 0.00 | 0.00 | 0.00 | 94 | 1009.4 |
| 20260509082342 | 58 | 352 | 2.0 | 4.0 | 0.00 | 0.00 | 0.00 | 94 | 1009.5 |
| 20260509081841 | 58 | 351 | 3.0 | 3.0 | 0.00 | 0.00 | 0.00 | 94 | 1009.6 |
| 20260509081335 | 59 | 352 | 1.0 | 3.0 | 0.00 | 0.00 | 0.00 | 94 | 1009.6 |
| 20260509080840 | 59 | 350 | 2.0 | 3.0 | 0.00 | 0.00 | 0.00 | 94 | 1009.6 |
| 20260509080342 | 59 | 338 | 3.0 | 4.0 | 0.00 | 0.00 | 0.00 | 94 | 1009.6 |
| 20260509075839 | 59 | 339 | 2.0 | 4.0 | 0.00 | 0.00 | 0.00 | 94 | 1009.6 |
| 20260509075335 | 59 | 344 | 2.0 | 4.0 | 0.00 | 0.00 | 0.00 | 94 | 1009.7 |
| 20260509074837 | 59 | 5 | 2.0 | 3.0 | 0.00 | 0.00 | 0.00 | 94 | 1009.7 |
| 20260509074337 | 59 | 0 | 0.0 | 3.0 | 0.00 | 0.00 | 0.00 | 94 | 1009.8 |
| 20260509073838 | 59 | 0 | 0.0 | 3.0 | 0.00 | 0.00 | 0.00 | 94 | 1009.9 |
| 20260509073338 | 59 | 352 | 1.0 | 3.0 | 0.00 | 0.00 | 0.00 | 94 | 1010.1 |
| 20260509072842 | 59 | 360 | 2.0 | 3.0 | 0.00 | 0.00 | 0.00 | 93 | 1010.1 |
| 20260509072416 | 59 | 0 | 0.0 | 2.0 | 0.00 | 0.00 | 0.00 | 94 | 1010.1 |
| 20260509071939 | 59 | 0 | 0.0 | 2.0 | 0.00 | 0.00 | 0.00 | 94 | 1010.1 |
| 20260509071443 | 59 | 0 | 0.0 | 2.0 | 0.00 | 0.00 | 0.00 | 94 | 1010.1 |
| 20260509070939 | 59 | 360 | 1.0 | 3.0 | 0.00 | 0.00 | 0.00 | 94 | 1010.1 |
| 20260509070439 | 59 | 346 | 1.0 | 3.0 | 0.00 | 0.00 | 0.00 | 94 | 1010.0 |
| 20260509065941 | 59 | 350 | 2.0 | 4.0 | 0.00 | 0.00 | 0.00 | 94 | 1010.0 |
| 20260509065439 | 59 | 347 | 2.0 | 4.0 | 0.00 | 0.00 | 0.00 | 94 | 1010.0 |
| 20260509064937 | 59 | 343 | 1.0 | 4.0 | 0.00 | 0.00 | 0.00 | 93 | 1010.0 |
| 20260509064439 | 59 | 343 | 3.0 | 7.0 | 0.00 | 0.00 | 0.00 | 94 | 1010.1 |
| 20260509063945 | 58 | 347 | 2.0 | 7.0 | 0.00 | 0.00 | 0.00 | 93 | 1009.9 |
| 20260509063439 | 58 | 5 | 4.0 | 4.0 | 0.00 | 0.00 | 0.00 | 93 | 1009.9 |
| 20260509062939 | 58 | 344 | 2.0 | 4.0 | 0.00 | 0.00 | 0.00 | 93 | 1009.9 |
| 20260509062437 | 58 | 5 | 1.0 | 4.0 | 0.00 | 0.00 | 0.00 | 93 | 1009.8 |
| 20260509061939 | 58 | 5 | 2.0 | 5.0 | 0.00 | 0.00 | 0.00 | 93 | 1009.8 |
| 20260509061439 | 58 | 0 | 0.0 | 5.0 | 0.00 | 0.00 | 0.00 | 93 | 1009.8 |
| 20260509060936 | 58 | 345 | 2.0 | 8.0 | 0.00 | 0.00 | 0.00 | 93 | 1009.9 |
| 20260509060440 | 58 | 16 | 4.0 | 8.0 | 0.00 | 0.00 | 0.00 | 93 | 1010.0 |
| 20260509055940 | 58 | 19 | 5.0 | 8.0 | 0.00 | 0.00 | 0.00 | 93 | 1009.9 |
| 20260509055437 | 58 | 22 | 6.0 | 5.0 | 0.00 | 0.00 | 0.00 | 93 | 1009.8 |
| 20260509054943 | 58 | 19 | 3.0 | 4.0 | 0.00 | 0.00 | 0.00 | 93 | 1010.0 |
| 20260509054437 | 58 | 10 | 2.0 | 4.0 | 0.00 | 0.00 | 0.00 | 93 | 1009.9 |
| 20260509053939 | 59 | 13 | 2.0 | 4.0 | 0.00 | 0.00 | 0.00 | 93 | 1010.0 |
| 20260509053436 | 59 | 13 | 3.0 | 4.0 | 0.00 | 0.00 | 0.00 | 93 | 1010.1 |
| 20260509052939 | 59 | 17 | 3.0 | 4.0 | 0.00 | 0.00 | 0.00 | 93 | 1010.0 |
| 20260509052442 | 59 | 35 | 2.0 | 4.0 | 0.00 | 0.00 | 0.00 | 93 | 1010.1 |
| 20260509051938 | 58 | 46 | 2.0 | 4.0 | 0.00 | 0.00 | 0.00 | 93 | 1010.1 |
| 20260509051438 | 58 | 360 | 2.0 | 4.0 | 0.00 | 0.00 | 0.00 | 92 | 1010.1 |
| 20260509050944 | 59 | 43 | 3.0 | 4.0 | 0.00 | 0.00 | 0.00 | 92 | 1010.1 |
| 20260509050440 | 59 | 15 | 2.0 | 4.0 | 0.00 | 0.00 | 0.00 | 92 | 1010.3 |
| 20260509045940 | 59 | 17 | 2.0 | 3.0 | 0.00 | 0.00 | 0.37 | 92 | 1010.3 |
| 20260509045441 | 58 | 0 | 0.0 | 0.0 | 0.00 | 0.00 | 0.37 | 92 | 1010.4 |